Terminal Aerodrome Forecast
Issued by NWS

Home | Current Version | Previous Version | Graphics & Text | Print | Product List | Glossary On
Versions: 1 2 3 4 5 6 7 8 9 10 11 12 13 14 15 16 17
000
FTUS43 KMPX 261208 AAA
TAFRNH
TAF AMD
KRNH 261208Z 2612/2712 31012G20KT P6SM OVC025
     FM262200 33010KT P6SM BKN040
     FM270300 35005KT P6SM SKC=

USA.gov is the U.S. government's official web portal to all federal, state and local government web resources and services.